sat.trackr.live / text

‹ back to catalog

RAISE-4

NORAD 67073 · 2025-297B

PAYLOAD ACTIVE UNKNOWN

§ Identity

Operator
Country
JPN
Launch date
2025-12-14
Launch site
RLLB
Launch vehicle
Mass (kg)
RCS (m²)

External: N2YO · Heavens-Above · Gunter

§ Orbital elements

Epoch: 2026-09-20T16:05:29.783904Z

Period
95.39 min
Inclination
97.5253°
Eccentricity
0.0013583
Mean motion
15.09590642 rev/d
Perigee alt
528.1 km
Apogee alt
546.8 km
Semi-major
6,915.6 km
B*
1.4434e-4
RAAN
49.8256°
Arg perigee
71.9994°
Mean anomaly
288.2714°
Rev number
4,229

§ Raw data

RAISE-41 67073U 25297B   26263.67048361  .00002260  00000+0  14434-3 0  99902 67073  97.5253  49.8256 0013583  71.9994 288.2714 15.09590642 42299

JSON: /api/v1/satellites/67073 · /tle

For live sub-satellite position, see the globe view (requires WebGL).

§ Visibility from observer

Set your observer location to see the next 7 days of passes ≥ 10°. The values pass through the URL so the page stays shareable.

No JS? Fill the form by hand. The geolocation button needs JavaScript.